Weather History for Okmulgee, OK

Change the Weather History Date:

Saturday, January 19, 2013

  Actual Average (KMKO) Record (KMKO)
Temperature  
Mean Temperature 54 °F -  
Max Temperature 66 °F 47 °F 71 °F (2006)
Min Temperature 41 °F 27 °F 16 °F (2008)
Degree Days  
Heating Degree Days 12    
Growing Degree Days 4 (Base 50)    
Moisture  
Dew Point 34 °F    
Average Humidity 52    
Maximum Humidity 76    
Minimum Humidity 30    
Precipitation  
Precipitation 0.00 in - - ()
Sea Level Pressure  
Sea Level Pressure 30.15 in    
Wind  
Wind Speed 8 mph (SSW)    
Max Wind Speed 15 mph    
Max Gust Speed 21 mph    
Visibility 10 miles    
Events      
Averages and records for this station are not official NWS values.
T = Trace of Precipitation, MM = Missing Value Source: NWS Daily Summary

Daily Weather History Graph

Daily Weather History Graph

Search for Another Location

Airport:

Trip Planner

Search our weather history database for the weather conditions in past years. The results will help you decide how hot, cold, wet, or windy it might be!

Date:

Astronomy

Jan. 19, 2013 Rise Set
Actual Time 7:31 AM CST 5:38 PM CST
Civil Twilight 7:03 AM CST 6:05 PM CST
Nautical Twilight 6:32 AM CST 6:36 PM CST
Astronomical Twilight 6:02 AM CST 7:07 PM CST
Moon 12:02 PM CST (1/19) 1:09 AM CST (1/19)
Length of Visible Light 11h 01m
Length of Day
10h 06m
First Quarter, 57% of the Moon is Illuminated
Jan 19
First Quarter
Jan 26
Full
Feb 3
Last Quarter
Feb 10
New
Feb 17
First Quarter

Hourly Weather History & Observations

Time (CST) Temp. Windchill Dew Point Humidity Pressure Visibility Wind Dir Wind Speed Gust Speed Precip Events Conditions
12:15 AM 46.4 °F 41.5 °F 33.8 °F 62% 30.20 in 10.0 mi South 10.4 mph - N/A   Clear
12:35 AM 46.4 °F 41.1 °F 33.8 °F 62% 30.20 in 10.0 mi South 11.5 mph - N/A   Clear
12:55 AM 46.4 °F 42.4 °F 33.8 °F 62% 30.19 in 10.0 mi South 8.1 mph - N/A   Clear
1:15 AM 46.4 °F 41.9 °F 33.8 °F 62% 30.19 in 10.0 mi South 9.2 mph - N/A   Clear
1:35 AM 46.4 °F 41.5 °F 33.8 °F 62% 30.19 in 10.0 mi South 10.4 mph - N/A   Clear
1:55 AM 46.4 °F 41.9 °F 33.8 °F 62% 30.19 in 10.0 mi South 9.2 mph - N/A   Clear
2:15 AM 46.4 °F 42.4 °F 33.8 °F 62% 30.19 in 10.0 mi South 8.1 mph - N/A   Clear
2:35 AM 46.4 °F 41.9 °F 33.8 °F 62% 30.18 in 10.0 mi South 9.2 mph - N/A   Clear
2:55 AM 46.4 °F 41.9 °F 33.8 °F 62% 30.18 in 10.0 mi South 9.2 mph - N/A   Clear
3:15 AM 46.4 °F 41.1 °F 33.8 °F 62% 30.17 in 10.0 mi South 11.5 mph - N/A   Clear
3:35 AM 46.4 °F 41.5 °F 33.8 °F 62% 30.17 in 10.0 mi South 10.4 mph - N/A   Clear
3:55 AM 46.4 °F 41.9 °F 33.8 °F 62% 30.16 in 10.0 mi SSW 9.2 mph - N/A   Clear
4:15 AM 46.4 °F 41.9 °F 33.8 °F 62% 30.15 in 10.0 mi South 9.2 mph - N/A   Clear
4:35 AM 46.4 °F 43.5 °F 33.8 °F 62% 30.15 in 10.0 mi SSW 5.8 mph - N/A   Clear
4:55 AM 44.6 °F 40.7 °F 33.8 °F 66% 30.15 in 10.0 mi South 6.9 mph - N/A   Clear
5:15 AM 44.6 °F 42.2 °F 33.8 °F 66% 30.14 in 10.0 mi South 4.6 mph - N/A   Clear
5:35 AM 44.6 °F - 33.8 °F 66% 30.14 in 10.0 mi Calm Calm - N/A   Clear
5:55 AM 44.6 °F - 33.8 °F 66% 30.14 in 10.0 mi Calm Calm - N/A   Clear
7:15 AM 44.6 °F 41.4 °F 33.8 °F 66% 30.15 in 10.0 mi SSW 5.8 mph - N/A   Clear
7:55 AM 44.6 °F 40.7 °F 33.8 °F 66% 30.15 in 10.0 mi SSW 6.9 mph - N/A   Clear
8:15 AM 44.6 °F 40.7 °F 33.8 °F 66% 30.16 in 10.0 mi SSW 6.9 mph - N/A   Clear
8:35 AM 46.4 °F 42.4 °F 33.8 °F 62% 30.15 in 10.0 mi SSW 8.1 mph - N/A   Clear
9:35 AM 50.0 °F - 33.8 °F 54% 30.17 in 10.0 mi SSW 12.7 mph 16.1 mph N/A   Clear
9:55 AM 51.8 °F - 35.6 °F 54% 30.18 in 10.0 mi SSW 15.0 mph 20.7 mph N/A   Clear
10:15 AM 53.6 °F - 35.6 °F 51% 30.19 in 10.0 mi SSW 12.7 mph - N/A   Clear
10:35 AM 55.4 °F - 35.6 °F 47% 30.18 in 10.0 mi SSW 10.4 mph - N/A   Clear
10:55 AM 57.2 °F - 35.6 °F 44% 30.17 in 10.0 mi SSW 13.8 mph 19.6 mph N/A   Clear
11:15 AM 59.0 °F - 33.8 °F 39% 30.17 in 10.0 mi SW 9.2 mph - N/A   Clear
11:35 AM 59.0 °F - 33.8 °F 39% 30.15 in 10.0 mi SSW 12.7 mph 18.4 mph N/A   Clear
11:55 AM 60.8 °F - 35.6 °F 39% 30.14 in 10.0 mi SSW 9.2 mph - N/A   Clear
12:15 PM 60.8 °F - 33.8 °F 36% 30.13 in 10.0 mi SSW 11.5 mph - N/A   Clear
12:35 PM 62.6 °F - 33.8 °F 34% 30.12 in 10.0 mi SSW 12.7 mph 18.4 mph N/A   Clear
12:55 PM 62.6 °F - 33.8 °F 34% 30.11 in 10.0 mi SSW 10.4 mph - N/A   Clear
1:35 PM 62.6 °F - 33.8 °F 34% 30.10 in 10.0 mi WSW 10.4 mph - N/A   Clear
1:55 PM 64.4 °F - 35.6 °F 34% 30.10 in 10.0 mi South 10.4 mph - N/A   Clear
2:15 PM 64.4 °F - 35.6 °F 34% 30.09 in 10.0 mi South 10.4 mph - N/A   Clear
2:35 PM 64.4 °F - 35.6 °F 34% 30.09 in 10.0 mi SSW 10.4 mph 16.1 mph N/A   Clear
2:55 PM 64.4 °F - 35.6 °F 34% 30.08 in 10.0 mi South 11.5 mph - N/A   Clear
3:15 PM 66.2 °F - 35.6 °F 32% 30.08 in 10.0 mi SSW 9.2 mph - N/A   Clear
3:35 PM 66.2 °F - 35.6 °F 32% 30.09 in 10.0 mi SSW 9.2 mph - N/A   Clear
3:55 PM 66.2 °F - 33.8 °F 30% 30.09 in 10.0 mi SSW 10.4 mph - N/A   Clear
4:15 PM 66.2 °F - 33.8 °F 30% 30.09 in 10.0 mi South 12.7 mph - N/A   Clear
4:35 PM 64.4 °F - 33.8 °F 32% 30.10 in 10.0 mi SW 6.9 mph - N/A   Clear
4:55 PM 64.4 °F - 33.8 °F 32% 30.10 in 10.0 mi SW 6.9 mph - N/A   Clear
5:15 PM 64.4 °F - 33.8 °F 32% 30.11 in 10.0 mi SW 8.1 mph - N/A   Clear
5:35 PM 62.6 °F - 33.8 °F 34% 30.10 in 10.0 mi SSW 6.9 mph - N/A   Clear
5:55 PM 60.8 °F - 33.8 °F 36% 30.11 in 10.0 mi SSW 6.9 mph - N/A   Clear
6:15 PM 60.8 °F - 33.8 °F 36% 30.12 in 10.0 mi SW 4.6 mph - N/A   Clear
6:35 PM 59.0 °F - 33.8 °F 39% 30.13 in 10.0 mi WSW 3.5 mph - N/A   Clear
6:55 PM 57.2 °F - 33.8 °F 41% 30.14 in 10.0 mi West 3.5 mph - N/A   Clear
7:15 PM 53.6 °F - 33.8 °F 47% 30.15 in 10.0 mi WNW 3.5 mph - N/A   Clear
7:35 PM 55.4 °F - 33.8 °F 44% 30.17 in 10.0 mi WSW 3.5 mph - N/A   Clear
7:55 PM 50.0 °F - 35.6 °F 58% 30.17 in 10.0 mi Calm Calm - N/A   Clear
8:15 PM 46.4 °F - 35.6 °F 66% 30.18 in 10.0 mi Calm Calm - N/A   Clear
8:35 PM 44.6 °F 43.1 °F 35.6 °F 71% 30.18 in 10.0 mi SSW 3.5 mph - N/A   Clear
8:55 PM 46.4 °F 45.2 °F 33.8 °F 62% 30.19 in 10.0 mi SSW 3.5 mph - N/A   Clear
9:15 PM 50.0 °F - 35.6 °F 58% 30.19 in 10.0 mi SW 3.5 mph - N/A   Clear
9:35 PM 46.4 °F - 33.8 °F 62% 30.19 in 10.0 mi Calm Calm - N/A   Clear
9:55 PM 46.4 °F 43.5 °F 33.8 °F 62% 30.20 in 10.0 mi West 5.8 mph - N/A   Clear
10:15 PM 46.4 °F 45.2 °F 35.6 °F 66% 30.20 in 10.0 mi SW 3.5 mph - N/A   Clear
10:35 PM 46.4 °F - 35.6 °F 66% 30.20 in 10.0 mi Calm Calm - N/A   Clear
10:55 PM 42.8 °F - 33.8 °F 70% 30.20 in 10.0 mi Calm Calm - N/A   Clear
11:15 PM 42.8 °F - 33.8 °F 70% 30.20 in 10.0 mi Calm Calm - N/A   Clear
11:35 PM 41.0 °F - 32.0 °F 70% 30.20 in 10.0 mi Calm Calm - N/A   Clear
11:55 PM 41.0 °F - 33.8 °F 76% 30.20 in 10.0 mi Calm Calm - N/A   Clear